N1JFY Weather Reports


Display with metric or nautical units.
time (UTC)temp
F
wind
direction
speed
MPH
gust
MPH
rain 1hr
in
rain 24hr
in
rain mn
in
humidity
%
barometer
mb
20260504004512 39 327 8.0 13.0 0.00 0.56 0.55 92 1000.7
20260504003011 39 323 7.0 11.0 0.00 0.56 0.55 92 1000.5
20260504001511 39 323 10.0 15.0 0.01 0.56 0.55 92 1000.5
20260504000027 39 355 8.0 16.0 0.01 0.56 0.55 92 1000.5
20260503234509 39 332 11.0 19.0 0.01 0.57 0.55 92 1000.3
20260503233009 39 321 8.0 14.0 0.01 0.57 0.55 92 1000.2
20260503231509 39 336 8.0 14.0 0.00 0.56 0.54 92 1000.3
20260503230008 39 315 10.0 15.0 0.00 0.56 0.54 92 1000.2
20260503224507 40 360 8.0 14.0 0.00 0.59 0.54 92 1000.3
20260503223006 40 346 8.0 16.0 0.00 0.59 0.54 91 1000.2
20260503221506 40 329 11.0 18.0 0.00 0.59 0.54 91 1000.2
20260503220005 40 328 9.0 15.0 0.01 0.59 0.54 91 1000.2
20260503214511 40 333 9.0 14.0 0.01 0.64 0.54 92 1000.3
20260503213100 40 336 9.0 14.0 0.01 0.64 0.54 92 1000.5
20260503211559 40 333 12.0 20.0 0.02 0.64 0.54 92 1000.7
20260503210100 40 321 7.0 11.0 0.02 0.63 0.53 93 1000.8
20260503204607 40 360 6.0 12.0 0.03 0.67 0.53 93 1001.1
20260503203105 39 355 7.0 12.0 0.04 0.67 0.53 93 1001.1
20260503201555 39 338 8.0 12.0 0.04 0.66 0.52 93 1001.2
20260503200051 39 351 6.0 11.0 0.04 0.65 0.51 93 1001.5
20260503194606 39 337 7.0 10.0 0.04 0.64 0.50 93 1001.8
20260503193047 38 340 8.0 12.0 0.05 0.63 0.49 93 1002.0
20260503191545 38 350 7.0 13.0 0.05 0.62 0.48 93 1002.2
20260503190057 38 328 4.0 13.0 0.05 0.61 0.47 93 1002.4
20260503184541 39 37 3.0 11.0 0.05 0.60 0.46 93 1002.6
20260503183043 39 328 6.0 10.0 0.04 0.57 0.44 93 1002.8
20260503181539 39 340 6.0 9.0 0.03 0.56 0.43 93 1003.0
20260503180039 39 341 4.0 10.0 0.03 0.56 0.42 93 1003.1
20260503174538 38 360 5.0 10.0 0.03 0.55 0.41 93 1003.1
20260503173106 38 346 6.0 9.0 0.03 0.54 0.40 93 1002.9
20260503171540 39 360 3.0 9.0 0.04 0.54 0.40 93 1002.9
20260503130113 37 355 0.0 0.0 0.06 0.33 0.19 96 1006.8
20260503120106 37 32 0.0 0.0 0.05 0.27 0.13 96 1007.4
20260503081552 37 137 0.0 0.0 0.01 0.15 0.01 96 1008.4
20260503071541 36 137 0.0 0.0 0.00 0.14 0.00 95 1008.6
20260503054536 37 136 0.0 0.0 0.00 0.14 0.00 95 1009.1
20260503053028 37 136 0.0 0.0 0.00 0.14 0.00 94 1009.4
20260503051525 37 136 0.0 0.0 0.00 0.14 0.00 95 1009.6
20260503050023 37 136 0.0 0.0 0.00 0.14 0.00 94 1009.9
20260503044536 37 136 0.0 0.0 0.00 0.14 0.00 94 1010.0
20260503043019 38 136 0.0 0.0 0.00 0.14 0.00 94 1010.1
20260503041519 38 136 0.0 0.0 0.00 0.14 0.00 94 1010.3
20260503040015 38 136 0.0 0.0 0.00 0.14 0.00 94 1010.5
20260503034515 38 136 0.0 0.0 0.01 0.14 0.14 94 1010.6
20260503033015 38 136 0.0 0.0 0.01 0.14 0.14 93 1010.7
20260503031514 38 136 0.0 0.0 0.01 0.14 0.14 93 1010.7
20260503030016 38 136 0.0 0.0 0.01 0.14 0.14 94 1010.9
20260503024512 38 180 0.0 0.0 0.00 0.13 0.13 94 1011.0
20260503023012 38 179 0.0 0.0 0.00 0.13 0.13 94 1011.2
20260503021512 38 179 0.0 0.0 0.00 0.13 0.13 94 1011.3
20260503020012 38 179 0.0 0.0 0.00 0.13 0.13 94 1011.3
20260503014511 38 179 0.0 0.0 0.00 0.13 0.13 94 1011.4
20260503013022 39 179 0.0 0.0 0.00 0.13 0.13 94 1011.4
20260503011510 39 179 0.0 0.0 0.00 0.13 0.13 94 1011.5
20260503010009 39 179 0.0 0.0 0.01 0.13 0.13 94 1011.7